This demonstration page uses our WeatherBlox Daily Observations layout. Learn more.

Left ArrowRight Arrow

Hourly Observations for February 10, 2016

Temp ( °F °C ) Dew Point ( °F °C ) Humidity (%) Winds ( mph kmh ) Pressure ( in mb ) Visibility ( mi km ) Precip ( " mm )
12:14 am 00:14 Mostly Cloudy 12 -11 9 -13 85 85 W 8 13 30.03 1017 10 16 N/A
12:34 am 00:34 Cloudy 14 -10 9 -13 79 79 W 12 19 30.03 1017 10 16 N/A
12:55 am 00:55 Cloudy 14 -10 9 -13 79 79 W 14 22 30.00 1016 10 16 N/A
1:14 am 01:14 Cloudy 14 -10 9 -13 79 79 W 12 19 30.00 1016 7 11 N/A
1:34 am 01:34 Cloudy 14 -10 10 -12 85 85 W 10 17 30.00 1016 7 11 N/A
1:55 am 01:55 Cloudy 14 -10 10 -12 85 85 W 13 20 30.00 1016 5 8 N/A
2:14 am 02:14 Cloudy 16 -9 10 -12 79 79 W 12 19 30.00 1016 5 8 N/A
2:34 am 02:34 Cloudy 16 -9 9 -13 73 73 WNW 17 28 30.00 1016 7 11 N/A
2:55 am 02:55 Cloudy 14 -10 9 -13 79 79 W 14 22 30.00 1016 10 16 N/A
3:14 am 03:14 Cloudy 14 -10 9 -13 79 79 W 13 20 30.00 1016 7 11 N/A
3:34 am 03:34 Cloudy 14 -10 10 -12 85 85 WNW 14 22 30.00 1016 3 5 N/A
3:55 am 03:55 Cloudy 14 -10 9 -13 79 79 W 17 28 30.03 1017 5 8 N/A
4:14 am 04:14 Cloudy 14 -10 9 -13 79 79 W 12 19 30.03 1017 7 11 N/A
4:34 am 04:34 Cloudy 14 -10 9 -13 79 79 W 13 20 30.03 1017 7 11 N/A
4:55 am 04:55 Cloudy 14 -10 9 -13 79 79 WNW 18 30 30.03 1017 5 8 N/A
5:14 am 05:14 Cloudy 14 -10 7 -14 73 73 W 17 28 30.03 1017 5 8 N/A
5:34 am 05:34 Cloudy 12 -11 7 -14 79 79 WNW 16 26 30.03 1017 5 8 N/A
5:55 am 05:55 Cloudy 12 -11 7 -14 79 79 WNW 13 20 30.06 1018 7 11 N/A
6:14 am 06:14 Cloudy 12 -11 9 -13 85 85 W 13 20 30.06 1018 7 11 N/A
6:34 am 06:34 Cloudy 12 -11 7 -14 79 79 W 13 20 30.06 1018 7 11 N/A
6:55 am 06:55 Cloudy 12 -11 7 -14 79 79 WNW 14 22 30.06 1018 7 11 N/A
7:14 am 07:14 Cloudy 12 -11 7 -14 79 79 W 13 20 30.06 1018 7 11 N/A
7:34 am 07:34 Cloudy 12 -11 7 -14 79 79 W 14 22 30.06 1018 5 8 N/A
7:55 am 07:55 Cloudy 12 -11 7 -14 79 79 W 12 19 30.06 1018 5 8 N/A
8:14 am 08:14 Cloudy 12 -11 7 -14 79 79 W 16 26 30.09 1019 4 6 N/A
8:34 am 08:34 Cloudy 12 -11 7 -14 79 79 W 17 28 30.09 1019 3 5 N/A
8:54 am 08:54 Cloudy 12 -11 7 -14 79 79 W 15 24 30.09 1019 5 8 N/A
9:14 am 09:14 Cloudy 12 -11 7 -14 79 79 W 15 24 30.09 1019 3 5 N/A
9:35 am 09:35 Cloudy 12 -11 5 -15 73 73 W 15 24 30.09 1019 7 11 N/A
9:54 am 09:54 Cloudy 12 -11 5 -15 73 73 W 15 24 30.09 1019 10 16 N/A
10:14 am 10:14 Cloudy 14 -10 7 -14 73 73 W 16 26 30.12 1020 10 16 N/A
10:35 am 10:35 Cloudy 14 -10 7 -14 73 73 W 18 30 30.12 1020 10 16 N/A
10:54 am 10:54 Mostly Cloudy 16 -9 7 -14 67 67 W 16 26 30.12 1020 10 16 N/A
11:14 am 11:14 Mostly Cloudy 16 -9 7 -14 67 67 W 15 24 30.12 1020 10 16 N/A
11:35 am 11:35 Cloudy 16 -9 7 -14 67 67 W 17 28 30.12 1020 10 16 N/A
11:54 am 11:54 Cloudy 16 -9 7 -14 67 67 W 14 22 30.12 1020 10 16 N/A
12:14 pm 12:14 Cloudy 14 -10 5 -15 67 67 W 15 24 30.12 1020 10 16 N/A
12:35 pm 12:35 Cloudy 16 -9 7 -14 67 67 W 18 30 30.12 1020 10 16 N/A
12:54 pm 12:54 Cloudy 16 -9 7 -14 67 67 W 20 31 30.12 1020 10 16 N/A
1:14 pm 13:14 Cloudy 16 -9 7 -14 67 67 W 17 28 30.12 1020 10 16 N/A
1:35 pm 13:35 Cloudy 16 -9 7 -14 67 67 W 15 24 30.12 1020 10 16 N/A
1:54 pm 13:54 Cloudy 18 -8 9 -13 68 68 W 13 20 30.12 1020 7 11 N/A
2:15 pm 14:15 Cloudy 16 -9 9 -13 73 73 W 12 19 30.12 1020 3 5 N/A
2:34 pm 14:34 Cloudy 16 -9 7 -14 67 67 W 13 20 30.12 1020 7 11 N/A
2:54 pm 14:54 Cloudy 16 -9 5 -15 62 62 W 16 26 30.12 1020 10 16 N/A
3:15 pm 15:15 Cloudy 16 -9 7 -14 67 67 W 15 24 30.12 1020 10 16 N/A
3:34 pm 15:34 Cloudy 16 -9 5 -15 62 62 W 15 24 30.12 1020 10 16 N/A
3:54 pm 15:54 Cloudy 16 -9 7 -14 67 67 W 14 22 30.12 1020 10 16 N/A
4:15 pm 16:15 Cloudy 16 -9 5 -15 62 62 W 14 22 30.12 1020 10 16 N/A
4:34 pm 16:34 Cloudy 16 -9 5 -15 62 62 W 16 26 30.12 1020 10 16 N/A
4:54 pm 16:54 Cloudy 16 -9 5 -15 62 62 WNW 14 22 30.15 1021 10 16 N/A
5:15 pm 17:15 Cloudy 16 -9 5 -15 62 62 W 12 19 30.15 1021 10 16 N/A
5:34 pm 17:34 Cloudy 16 -9 5 -15 62 62 W 15 24 30.15 1021 10 16 N/A
5:54 pm 17:54 Mostly Cloudy 14 -10 5 -15 67 67 W 13 20 30.15 1021 10 16 N/A
6:15 pm 18:15 Mostly Cloudy 14 -10 5 -15 67 67 W 15 24 30.15 1021 10 16 N/A
6:34 pm 18:34 Mostly Cloudy 14 -10 5 -15 67 67 W 14 22 30.18 1022 10 16 N/A
6:54 pm 18:54 Partly Cloudy 14 -10 5 -15 67 67 W 12 19 30.18 1022 10 16 N/A
7:15 pm 19:15 Mostly Cloudy 14 -10 7 -14 73 73 W 10 17 30.18 1022 10 16 N/A
7:34 pm 19:34 Cloudy 14 -10 7 -14 73 73 W 10 17 30.18 1022 10 16 N/A
7:54 pm 19:54 Cloudy 14 -10 7 -14 73 73 W 9 15 30.18 1022 10 16 N/A
8:15 pm 20:15 Cloudy 14 -10 7 -14 73 73 NW 5 7 30.18 1022 10 16 N/A
8:34 pm 20:34 Cloudy 14 -10 7 -14 73 73 NNW 5 7 30.18 1022 10 16 N/A
8:54 pm 20:54 Cloudy 14 -10 7 -14 73 73 NNW 5 7 30.21 1023 10 16 N/A
9:15 pm 21:15 Cloudy 14 -10 7 -14 73 73 NW 3 6 30.21 1023 10 16 N/A
9:34 pm 21:34 Cloudy 14 -10 7 -14 73 73 NW 5 7 30.21 1023 10 16 N/A
9:54 pm 21:54 Cloudy 14 -10 7 -14 73 73 NW 3 6 30.21 1023 10 16 N/A
10:15 pm 22:15 Cloudy 14 -10 7 -14 73 73 NNW 6 9 30.21 1023 10 16 N/A
10:34 pm 22:34 Cloudy 12 -11 7 -14 79 79 NW 5 7 30.21 1023 10 16 N/A
10:54 pm 22:54 Partly Cloudy 12 -11 5 -15 73 73 WNW 5 7 30.21 1023 10 16 N/A
11:15 pm 23:15 Clear 10 -12 5 -15 79 79 W 5 7 30.24 1024 10 16 N/A
11:34 pm 23:34 Clear 12 -11 5 -15 73 73 W 6 9 30.24 1024 10 16 N/A
11:54 pm 23:54 Mostly Cloudy 12 -11 7 -14 79 79 W 7 11 30.24 1024 10 16 N/A

Powered by AerisWeather